GFSMA_prec_kuchsnow_255.txt.gz
Snowfall_Accumulation
0.0 0.0 0.0 0.0 0.0 0.0 0.0 0.0 0.0 0.0 0.0 0.0 0.0 0.0 0.0 0.0 0.0 0.0 0.0 0.0 0.0 0.0 0.0 0.0 0.0 0.0 0.0 0.0 0.0 0.0 0.0 0.0 0.0 0.0 0.0 0.0 0.0 0.0 0.0 0.0 0.0 0.0 0.0
0.0 0.0 0.0 0.0 0.0 0.0 0.0 0.0 0.0 0.0 0.0 0.0 0.0 0.0 0.0 0.0 0.0 0.0 0.0 0.0 0.0 0.0 0.0 0.0 0.0 0.0 0.0 0.0 0.0 0.0 0.0 0.0 0.0 0.0 0.0 0.0 0.0 0.0 0.0 0.0 0.0 0.0 0.0
0.0 0.0 0.0 0.0 0.0 0.0 0.0 0.0 0.0 0.0 0.0 0.0 0.0 0.0 0.0 0.0 0.0 0.0 0.0 0.0 0.0 0.0 0.0 0.0 0.0 0.0 0.0 0.0 0.0 0.0 0.0 0.0 0.0 0.0 0.0 0.0 0.0 0.0 0.0 0.0 0.0 0.0 0.0
0.0 0.0 0.0 0.0 0.0 0.0 0.0 0.0 0.0 0.0 0.0 0.0 0.0 0.0 0.0 0.0 0.0 0.0 0.0 0.0 0.0 0.0 0.0 0.0 0.0 0.0 0.0 0.0 0.0 0.0 0.0 0.0 0.0 0.0 0.0 0.0 0.0 0.0 0.0 0.0 0.0 0.0 0.0
0.0 0.0 0.0 0.0 0.0 0.0 0.0 0.0 0.0 0.0 0.0 0.0 0.0 0.0 0.0 0.0 0.0 0.0 0.0 0.0 0.0 0.0 0.0 0.0 0.0 0.0 0.0 0.0 0.0 0.0 0.0 0.0 0.0 0.0 0.0 0.0 0.0 0.0 0.0 0.0 0.0 0.0 0.0
0.0 0.0 0.0 0.0 0.0 0.0 0.0 0.0 0.0 0.0 0.0 0.0 0.0 0.0 0.0 0.0 0.0 0.0 0.0 0.0 0.0 0.0 0.0 0.0 0.0 0.0 0.0 0.0 0.0 0.0 0.0 0.0 0.0 0.0 0.0 0.0 0.0 0.0 0.0 0.0 0.0 0.0 0.0
0.0 0.0 0.0 0.0 0.0 0.0 0.0 0.0 0.0 0.0 0.0 0.0 0.0 0.0 0.0 0.0 0.0 0.0 0.0 0.0 0.0 0.0 0.0 0.0 0.0 0.0 0.0 0.0 0.0 0.0 0.0 0.0 0.0 0.0 0.0 0.0 0.0 0.0 0.0 0.0 0.0 0.0 0.0
0.0 0.0 0.0 0.0 0.0 0.0 0.0 0.0 0.0 0.0 0.0 0.0 0.0 0.0 0.0 0.0 0.0 0.0 0.0 0.0 0.0 0.0 0.0 0.0 0.0 0.0 0.0 0.0 0.0 0.0 0.0 0.0 0.0 0.0 0.0 0.0 0.0 0.0 0.0 0.0 0.0 0.0 0.0
0.0 0.0 0.0 0.0 0.0 0.0 0.0 0.0 0.0 0.0 0.0 0.0 0.0 0.0 0.0 0.0 0.0 0.0 0.0 0.0 0.0 0.0 0.0 0.0 0.0 0.0 0.0 0.0 0.0 0.0 0.0 0.0 0.0 0.0 0.0 0.0 0.0 0.0 0.0 0.0 0.0 0.0 0.0
0.0 0.0 0.0 0.0 0.0 0.0 0.0 0.0 0.0 0.0 0.0 0.0 0.0 0.0 0.0 0.0 0.1 0.0 0.0 0.0 0.0 0.0 0.0 0.0 0.0 0.0 0.0 0.0 0.0 0.0 0.0 0.0 0.0 0.0 0.0 0.0 0.0 0.0 0.0 0.0 0.0 0.0 0.0
0.0 0.0 0.0 0.0 0.0 0.0 0.0 0.0 0.0 0.0 0.0 0.0 0.0 0.0 0.0 0.0 0.0 0.2 0.0 0.0 0.0 0.0 0.0 0.0 0.0 0.0 0.0 0.0 0.0 0.0 0.0 0.0 0.0 0.0 0.0 0.0 0.0 0.0 0.0 0.0 0.0 0.0 0.0
0.0 0.0 0.0 0.0 0.0 0.0 0.0 0.0 0.0 0.0 0.0 0.0 0.0 0.0 0.1 0.2 0.0 0.2 0.2 0.0 0.0 0.0 0.0 0.0 0.0 0.0 0.0 0.0 0.0 0.0 0.0 0.0 0.0 0.0 0.0 0.0 0.0 0.0 0.0 0.0 0.0 0.0 0.0
0.0 0.0 0.0 0.0 0.0 0.0 0.0 0.0 0.0 0.1 0.1 0.1 0.1 0.2 0.1 0.1 0.2 0.2 0.3 0.1 0.2 0.0 0.0 0.0 0.0 0.0 0.0 0.0 0.0 0.0 0.0 0.0 0.0 0.0 0.0 0.0 0.0 0.0 0.0 0.0 0.0 0.0 0.0
0.1 0.0 0.0 0.0 0.0 0.0 0.0 0.0 0.1 0.1 0.1 0.1 0.1 0.2 0.2 0.2 0.2 0.4 0.6 1.9 1.4 0.0 0.1 0.3 0.0 0.1 0.0 0.0 0.0 0.0 0.0 0.0 0.0 0.0 0.0 0.0 0.0 0.0 0.0 0.0 0.0 0.0 0.0
0.0 0.1 0.0 0.0 0.0 0.0 0.0 0.0 0.1 0.0 0.0 0.1 0.2 0.1 0.3 0.2 0.3 0.3 0.5 0.7 2.8 3.8 0.7 0.1 0.4 0.1 0.0 0.0 0.0 0.0 0.0 0.0 0.0 0.0 0.0 0.0 0.0 0.0 0.0 0.0 0.0 0.0 0.0
0.0 0.0 0.1 0.1 0.1 0.0 0.0 0.0 0.0 0.0 0.0 0.1 0.2 0.2 0.3 0.3 0.3 0.3 0.5 0.4 0.7 1.3 1.3 0.4 0.5 0.4 0.2 0.0 0.1 0.0 0.1 0.0 0.0 0.0 0.0 0.0 0.0 0.0 0.0 0.0 0.0 0.0 0.0
0.2 0.1 0.1 0.2 0.3 0.2 0.1 0.1 0.1 0.1 0.0 0.1 0.1 0.2 0.2 0.2 0.1 0.3 0.3 0.5 0.6 0.9 1.2 1.0 0.6 0.6 0.5 0.4 0.2 0.1 0.0 0.0 0.0 0.0 0.0 0.0 0.0 0.0 0.0 0.0 0.0 0.0 0.0
2.3 2.0 1.6 1.1 1.1 0.6 1.2 0.3 0.4 1.6 1.7 0.5 0.7 0.6 0.8 0.2 0.4 0.2 0.1 0.4 0.6 1.0 1.2 1.7 1.5 1.4 1.3 0.9 0.6 0.4 0.3 0.2 0.1 0.1 0.0 0.0 0.0 0.0 0.0 0.0 0.0 0.0 0.1
7.4 7.0 5.7 4.8 4.4 5.1 4.6 7.4 3.8 1.6 2.3 3.7 3.7 3.1 2.1 1.8 1.4 1.4 1.1 0.5 0.7 0.6 0.5 2.1 2.3 1.8 1.3 1.1 0.9 0.6 0.6 0.3 0.2 0.1 0.0 0.0 0.0 0.0 0.1 0.0 0.1 0.1 0.0
8.6 11.0 14.4 14.3 12.2 8.0 8.9 7.4 7.0 7.4 4.0 6.2 7.5 3.2 3.1 4.1 3.5 2.3 3.3 2.5 2.1 1.4 1.7 1.6 2.0 2.6 3.9 2.1 1.5 1.7 2.6 0.9 0.8 0.3 0.4 0.2 0.1 0.1 0.0 0.1 0.1 0.1 0.2
3.7 9.3 10.3 10.6 9.1 7.6 7.1 4.5 2.9 7.2 6.3 6.0 9.8 7.3 4.7 3.8 3.7 2.5 1.1 3.3 2.7 4.2 6.2 5.1 5.2 7.3 9.8 7.2 7.0 6.3 8.2 7.8 6.8 5.3 3.6 3.4 0.6 0.2 0.2 0.2 0.1 0.1 0.1
0.0 0.6 1.1 0.6 4.0 3.2 2.1 0.8 0.5 1.8 3.5 2.7 2.9 2.9 2.2 1.4 1.7 2.4 2.3 1.5 2.0 4.0 5.4 6.8 8.1 7.9 10.5 11.1 9.4 9.2 12.0 11.4 12.7 9.0 10.6 10.9 7.0 6.1 8.4 6.8 2.2 3.4 1.3
0.8 0.3 0.2 0.1 0.0 0.2 0.3 0.2 0.0 0.2 0.4 1.1 1.1 0.8 0.9 0.5 0.5 0.9 1.4 1.3 1.3 1.3 3.0 2.9 5.1 5.4 5.2 5.0 4.5 5.2 5.7 6.9 9.6 7.8 8.2 9.7 7.9 9.0 7.9 7.0 6.0 6.1 5.2
1.4 1.4 3.3 1.4 1.3 0.1 0.1 0.0 0.1 0.0 0.0 0.0 0.5 0.2 0.3 0.1 0.3 0.3 1.2 0.9 0.3 0.6 0.7 0.7 1.1 1.1 0.6 0.7 1.1 1.2 2.7 2.6 2.4 1.5 1.2 8.0 3.7 5.0 4.0 2.0 0.3 1.6 1.5
2.9 2.4 2.3 0.8 1.3 0.4 0.2 0.3 0.1 0.0 0.7 0.6 0.2 0.0 0.0 0.0 0.0 0.7 1.0 1.2 0.4 0.5 0.1 0.1 0.3 0.4 0.1 0.2 0.2 2.2 6.2 12.1 13.4 9.3 3.0 7.1 6.6 5.8 4.6 2.5 1.8 1.5 1.5
3.0 2.8 2.2 1.4 0.8 0.8 0.3 0.5 0.4 0.4 0.5 0.2 0.2 0.1 0.1 0.2 1.2 1.4 2.7 2.7 2.8 2.9 2.6 1.9 1.7 1.4 1.1 0.7 2.5 1.6 4.6 9.6 8.3 13.0 5.6 7.4 9.7 10.9 20.9 11.3 6.9 5.6 5.1

GFSMA_prec_kuchsnow_261.txt.gz
Snowfall_Accumulation
0.0 0.0 0.0 0.0 0.0 0.0 0.0 0.0 0.0 0.0 0.0 0.0 0.0 0.0 0.0 0.0 0.0 0.0 0.0 0.0 0.0 0.0 0.0 0.0 0.0 0.0 0.0 0.0 0.0 0.0 0.0 0.0 0.0 0.0 0.0 0.0 0.0 0.0 0.0 0.0 0.0 0.0 0.0
0.0 0.0 0.0 0.0 0.0 0.0 0.0 0.0 0.0 0.0 0.0 0.0 0.0 0.0 0.0 0.0 0.0 0.0 0.0 0.0 0.0 0.0 0.0 0.0 0.0 0.0 0.0 0.0 0.0 0.0 0.0 0.0 0.0 0.0 0.0 0.0 0.0 0.0 0.0 0.0 0.0 0.0 0.0
0.0 0.0 0.0 0.0 0.0 0.0 0.0 0.0 0.0 0.0 0.0 0.0 0.0 0.0 0.0 0.0 0.0 0.0 0.0 0.0 0.0 0.0 0.0 0.0 0.0 0.0 0.0 0.0 0.0 0.0 0.0 0.0 0.0 0.0 0.0 0.0 0.0 0.0 0.0 0.0 0.0 0.0 0.0
0.0 0.0 0.0 0.0 0.0 0.0 0.0 0.0 0.0 0.0 0.0 0.0 0.0 0.0 0.0 0.0 0.0 0.0 0.0 0.0 0.0 0.0 0.0 0.0 0.0 0.0 0.0 0.0 0.0 0.0 0.0 0.0 0.0 0.0 0.0 0.0 0.0 0.0 0.0 0.0 0.0 0.0 0.0
0.0 0.0 0.0 0.0 0.0 0.0 0.0 0.0 0.0 0.0 0.0 0.0 0.0 0.0 0.0 0.0 0.0 0.0 0.0 0.0 0.0 0.0 0.0 0.0 0.0 0.0 0.0 0.0 0.0 0.0 0.0 0.0 0.0 0.0 0.0 0.0 0.0 0.0 0.0 0.0 0.0 0.0 0.0
0.0 0.0 0.0 0.0 0.0 0.0 0.0 0.0 0.0 0.0 0.0 0.0 0.0 0.0 0.0 0.0 0.0 0.0 0.0 0.0 0.0 0.0 0.0 0.0 0.0 0.0 0.0 0.0 0.0 0.0 0.0 0.0 0.0 0.0 0.0 0.0 0.0 0.0 0.0 0.0 0.0 0.0 0.0
0.0 0.0 0.0 0.0 0.0 0.0 0.0 0.0 0.0 0.0 0.0 0.0 0.0 0.0 0.0 0.0 0.0 0.0 0.0 0.0 0.0 0.0 0.0 0.0 0.0 0.0 0.0 0.0 0.0 0.0 0.0 0.0 0.0 0.0 0.0 0.0 0.0 0.0 0.0 0.0 0.0 0.0 0.0
0.0 0.0 0.0 0.0 0.0 0.0 0.0 0.0 0.0 0.0 0.0 0.0 0.0 0.0 0.0 0.0 0.0 0.0 0.0 0.0 0.0 0.0 0.0 0.0 0.0 0.0 0.0 0.0 0.0 0.0 0.0 0.0 0.0 0.0 0.0 0.0 0.0 0.0 0.0 0.0 0.0 0.0 0.0
0.0 0.0 0.0 0.0 0.0 0.0 0.0 0.0 0.0 0.0 0.0 0.0 0.0 0.0 0.0 0.0 0.0 0.0 0.0 0.0 0.0 0.0 0.0 0.0 0.0 0.0 0.0 0.0 0.0 0.0 0.0 0.0 0.0 0.0 0.0 0.0 0.0 0.0 0.0 0.0 0.0 0.0 0.0
0.0 0.0 0.0 0.0 0.0 0.0 0.0 0.0 0.0 0.0 0.0 0.0 0.0 0.0 0.0 0.0 0.1 0.0 0.0 0.0 0.0 0.0 0.0 0.0 0.0 0.0 0.0 0.0 0.0 0.0 0.0 0.0 0.0 0.0 0.0 0.0 0.0 0.0 0.0 0.0 0.0 0.0 0.0
0.0 0.0 0.0 0.0 0.0 0.0 0.0 0.0 0.0 0.0 0.0 0.0 0.0 0.0 0.0 0.0 0.0 0.2 0.0 0.0 0.0 0.0 0.0 0.0 0.0 0.0 0.0 0.0 0.0 0.0 0.0 0.0 0.0 0.0 0.0 0.0 0.0 0.0 0.0 0.0 0.0 0.0 0.0
0.0 0.0 0.0 0.0 0.0 0.0 0.0 0.0 0.0 0.0 0.0 0.0 0.0 0.0 0.1 0.2 0.0 0.2 0.2 0.0 0.0 0.0 0.0 0.0 0.0 0.0 0.0 0.0 0.0 0.0 0.0 0.0 0.0 0.0 0.0 0.0 0.0 0.0 0.0 0.0 0.0 0.0 0.0
0.0 0.0 0.0 0.0 0.0 0.0 0.0 0.0 0.0 0.1 0.1 0.1 0.1 0.2 0.1 0.1 0.2 0.2 0.3 0.1 0.2 0.0 0.0 0.0 0.0 0.0 0.0 0.0 0.0 0.0 0.0 0.0 0.0 0.0 0.0 0.0 0.0 0.0 0.0 0.0 0.0 0.0 0.0
0.1 0.0 0.0 0.0 0.0 0.0 0.0 0.0 0.1 0.1 0.1 0.1 0.1 0.2 0.2 0.2 0.2 0.4 0.6 1.9 1.4 0.0 0.1 0.3 0.0 0.1 0.0 0.0 0.0 0.0 0.0 0.0 0.0 0.0 0.0 0.0 0.0 0.0 0.0 0.0 0.0 0.0 0.0
0.0 0.1 0.0 0.0 0.0 0.0 0.0 0.0 0.1 0.0 0.0 0.1 0.2 0.1 0.3 0.2 0.3 0.3 0.5 0.7 2.8 3.8 0.7 0.1 0.4 0.1 0.0 0.0 0.0 0.0 0.0 0.0 0.0 0.0 0.0 0.0 0.0 0.0 0.0 0.0 0.0 0.0 0.0
0.0 0.0 0.1 0.1 0.1 0.0 0.0 0.0 0.0 0.0 0.0 0.1 0.2 0.2 0.3 0.3 0.3 0.3 0.5 0.4 0.7 1.5 1.5 0.4 0.5 0.4 0.2 0.0 0.1 0.0 0.1 0.0 0.0 0.0 0.0 0.0 0.0 0.0 0.0 0.0 0.0 0.0 0.0
0.2 0.1 0.1 0.2 0.3 0.2 0.1 0.1 0.1 0.1 0.0 0.1 0.1 0.2 0.2 0.2 0.1 0.3 0.3 0.5 0.6 0.9 1.2 1.0 0.6 0.6 0.5 0.4 0.2 0.1 0.0 0.0 0.0 0.0 0.0 0.0 0.0 0.0 0.0 0.0 0.0 0.0 0.0
2.3 2.0 1.6 1.1 1.1 0.6 1.2 0.3 0.4 1.6 1.7 0.5 0.7 0.6 0.8 0.2 0.4 0.2 0.1 0.4 0.6 1.0 1.2 1.7 1.5 1.4 1.3 0.9 0.6 0.4 0.3 0.2 0.1 0.1 0.0 0.0 0.0 0.0 0.0 0.0 0.0 0.0 0.1
7.4 7.0 5.7 4.8 4.4 5.1 4.6 7.4 3.8 1.6 2.3 3.7 3.7 3.1 2.1 1.8 1.4 1.4 1.1 0.5 0.7 0.6 0.5 2.4 2.3 1.8 1.3 1.1 0.9 0.6 0.6 0.3 0.2 0.1 0.0 0.0 0.0 0.0 0.1 0.0 0.1 0.1 0.0
8.6 11.0 14.4 14.3 12.2 8.0 8.9 7.4 7.0 7.4 4.0 6.2 7.5 3.2 3.1 4.1 3.5 2.3 3.3 2.6 2.2 1.5 1.8 1.9 2.0 2.6 3.9 2.1 1.5 1.7 2.6 0.9 0.8 0.3 0.4 0.2 0.1 0.1 0.0 0.1 0.1 0.1 0.2
3.7 9.3 10.3 10.6 9.1 7.6 7.1 4.5 2.9 7.2 6.3 6.0 9.8 7.3 4.7 3.8 3.7 2.5 1.2 3.3 2.8 4.4 6.3 5.4 5.2 7.3 9.8 7.2 7.0 6.3 8.2 7.8 6.8 5.3 3.6 3.4 0.6 0.2 0.2 0.2 0.1 0.1 0.1
0.0 0.6 1.1 0.6 4.0 3.2 2.1 0.8 0.5 1.8 3.5 2.7 2.9 2.9 2.2 1.4 1.7 2.4 2.3 1.5 2.0 4.0 5.5 6.9 8.3 8.0 10.5 11.1 9.4 9.2 12.0 11.4 12.7 9.0 10.6 10.9 7.0 6.1 8.4 6.8 2.2 3.4 1.3
0.8 0.3 0.2 0.1 0.0 0.2 0.3 0.2 0.0 0.2 0.4 1.1 1.1 0.8 0.9 0.5 0.5 0.9 1.5 1.4 1.3 1.3 3.0 3.1 5.2 5.7 5.2 5.0 4.5 5.3 5.7 6.9 9.7 7.8 8.2 9.7 7.9 9.0 7.9 7.0 6.0 6.1 5.2
1.4 1.4 3.3 1.4 1.3 0.1 0.1 0.0 0.1 0.0 0.0 0.0 0.5 0.2 0.3 0.2 0.3 0.4 1.2 0.9 0.3 0.6 0.7 0.7 1.1 1.1 0.6 0.7 1.1 1.3 2.7 2.6 2.4 1.5 1.2 8.0 3.7 5.0 4.0 2.0 0.3 1.6 1.5
2.9 2.4 2.3 0.8 1.3 0.4 0.2 0.3 0.1 0.0 0.7 0.6 0.2 0.0 0.1 0.1 0.0 0.7 1.1 1.4 0.4 0.5 0.1 0.1 0.3 0.4 0.2 0.3 0.3 2.4 6.6 12.3 13.6 9.3 3.0 7.1 6.6 5.8 4.6 2.5 1.8 1.5 1.5
3.0 2.8 2.2 1.4 0.8 0.8 0.3 0.5 0.4 0.4 0.5 0.2 0.2 0.1 0.1 0.2 1.2 1.5 3.1 3.5 3.4 2.9 2.6 1.9 1.7 1.4 1.1 0.7 2.5 1.6 4.8 10.0 8.4 13.0 5.6 7.4 9.7 10.9 20.9 11.3 6.9 5.6 5.1

GFSMA_prec_kuchsnow_267.txt.gz
Snowfall_Accumulation
0.0 0.0 0.0 0.0 0.0 0.0 0.0 0.0 0.0 0.0 0.0 0.0 0.0 0.0 0.0 0.0 0.0 0.0 0.0 0.0 0.0 0.0 0.0 0.0 0.0 0.0 0.0 0.0 0.0 0.0 0.0 0.0 0.0 0.0 0.0 0.0 0.0 0.0 0.0 0.0 0.0 0.0 0.0
0.0 0.0 0.0 0.0 0.0 0.0 0.0 0.0 0.0 0.0 0.0 0.0 0.0 0.0 0.0 0.0 0.0 0.0 0.0 0.0 0.0 0.0 0.0 0.0 0.0 0.0 0.0 0.0 0.0 0.0 0.0 0.0 0.0 0.0 0.0 0.0 0.0 0.0 0.0 0.0 0.0 0.0 0.0
0.0 0.0 0.0 0.0 0.0 0.0 0.0 0.0 0.0 0.0 0.0 0.0 0.0 0.0 0.0 0.0 0.0 0.0 0.0 0.0 0.0 0.0 0.0 0.0 0.0 0.0 0.0 0.0 0.0 0.0 0.0 0.0 0.0 0.0 0.0 0.0 0.0 0.0 0.0 0.0 0.0 0.0 0.0
0.0 0.0 0.0 0.0 0.0 0.0 0.0 0.0 0.0 0.0 0.0 0.0 0.0 0.0 0.0 0.0 0.0 0.0 0.0 0.0 0.0 0.0 0.0 0.0 0.0 0.0 0.0 0.0 0.0 0.0 0.0 0.0 0.0 0.0 0.0 0.0 0.0 0.0 0.0 0.0 0.0 0.0 0.0
0.0 0.0 0.0 0.0 0.0 0.0 0.0 0.0 0.0 0.0 0.0 0.0 0.0 0.0 0.0 0.0 0.0 0.0 0.0 0.0 0.0 0.0 0.0 0.0 0.0 0.0 0.0 0.0 0.0 0.0 0.0 0.0 0.0 0.0 0.0 0.0 0.0 0.0 0.0 0.0 0.0 0.0 0.0
0.0 0.0 0.0 0.0 0.0 0.0 0.0 0.0 0.0 0.0 0.0 0.0 0.0 0.0 0.0 0.0 0.0 0.0 0.0 0.0 0.0 0.0 0.0 0.0 0.0 0.0 0.0 0.0 0.0 0.0 0.0 0.0 0.0 0.0 0.0 0.0 0.0 0.0 0.0 0.0 0.0 0.0 0.0
0.0 0.0 0.0 0.0 0.0 0.0 0.0 0.0 0.0 0.0 0.0 0.0 0.0 0.0 0.0 0.0 0.0 0.0 0.0 0.0 0.0 0.0 0.0 0.0 0.0 0.0 0.0 0.0 0.0 0.0 0.0 0.0 0.0 0.0 0.0 0.0 0.0 0.0 0.0 0.0 0.0 0.0 0.0
0.0 0.0 0.0 0.0 0.0 0.0 0.0 0.0 0.0 0.0 0.0 0.0 0.0 0.0 0.0 0.0 0.0 0.0 0.0 0.0 0.0 0.0 0.0 0.0 0.0 0.0 0.0 0.0 0.0 0.0 0.0 0.0 0.0 0.0 0.0 0.0 0.0 0.0 0.0 0.0 0.0 0.0 0.0
0.0 0.0 0.0 0.0 0.0 0.0 0.0 0.0 0.0 0.0 0.0 0.0 0.0 0.0 0.0 0.0 0.0 0.0 0.0 0.0 0.0 0.0 0.0 0.0 0.0 0.0 0.0 0.0 0.0 0.0 0.0 0.0 0.0 0.0 0.0 0.0 0.0 0.0 0.0 0.0 0.0 0.0 0.0
0.0 0.0 0.0 0.0 0.0 0.0 0.0 0.0 0.0 0.0 0.0 0.0 0.0 0.0 0.0 0.0 0.1 0.0 0.0 0.0 0.0 0.0 0.0 0.0 0.0 0.0 0.0 0.0 0.0 0.0 0.0 0.0 0.0 0.0 0.0 0.0 0.0 0.0 0.0 0.0 0.0 0.0 0.0
0.0 0.0 0.0 0.0 0.0 0.0 0.0 0.0 0.0 0.0 0.0 0.0 0.0 0.0 0.0 0.0 0.0 0.2 0.0 0.0 0.0 0.0 0.0 0.0 0.0 0.0 0.0 0.0 0.0 0.0 0.0 0.0 0.0 0.0 0.0 0.0 0.0 0.0 0.0 0.0 0.0 0.0 0.0
0.0 0.0 0.0 0.0 0.0 0.0 0.0 0.0 0.0 0.0 0.0 0.0 0.0 0.0 0.1 0.2 0.0 0.2 0.2 0.0 0.0 0.0 0.0 0.0 0.0 0.0 0.0 0.0 0.0 0.0 0.0 0.0 0.0 0.0 0.0 0.0 0.0 0.0 0.0 0.0 0.0 0.0 0.0
0.0 0.0 0.0 0.0 0.0 0.0 0.0 0.0 0.0 0.1 0.1 0.1 0.1 0.2 0.1 0.1 0.2 0.2 0.3 0.1 0.2 0.0 0.0 0.0 0.0 0.0 0.0 0.0 0.0 0.0 0.0 0.0 0.0 0.0 0.0 0.0 0.0 0.0 0.0 0.0 0.0 0.0 0.0
0.1 0.0 0.0 0.0 0.0 0.0 0.0 0.0 0.1 0.1 0.1 0.1 0.1 0.2 0.2 0.2 0.2 0.4 0.6 1.9 1.4 0.0 0.1 0.3 0.0 0.1 0.0 0.0 0.0 0.0 0.0 0.0 0.0 0.0 0.0 0.0 0.0 0.0 0.0 0.0 0.0 0.0 0.0
0.0 0.1 0.0 0.0 0.0 0.0 0.0 0.0 0.1 0.0 0.0 0.1 0.2 0.1 0.3 0.2 0.3 0.3 0.5 0.7 2.8 4.1 0.7 0.1 0.4 0.1 0.0 0.0 0.0 0.0 0.0 0.0 0.0 0.0 0.0 0.0 0.0 0.0 0.0 0.0 0.0 0.0 0.0
0.0 0.0 0.1 0.1 0.1 0.0 0.0 0.0 0.0 0.0 0.0 0.1 0.2 0.2 0.3 0.3 0.3 0.3 0.5 0.4 0.7 1.5 2.1 0.4 0.5 0.4 0.2 0.0 0.1 0.0 0.1 0.0 0.0 0.0 0.0 0.0 0.0 0.0 0.0 0.0 0.0 0.0 0.0
0.2 0.1 0.1 0.2 0.3 0.2 0.1 0.1 0.1 0.1 0.0 0.1 0.1 0.2 0.2 0.2 0.1 0.3 0.3 0.5 0.6 0.9 1.4 1.0 0.6 0.6 0.5 0.4 0.2 0.1 0.0 0.0 0.0 0.0 0.0 0.0 0.0 0.0 0.0 0.0 0.0 0.0 0.0
2.3 2.0 1.6 1.1 1.1 0.6 1.2 0.3 0.4 1.6 1.7 0.5 0.7 0.6 0.8 0.2 0.4 0.2 0.1 0.4 0.7 1.0 1.2 1.7 1.5 1.4 1.3 0.9 0.6 0.4 0.3 0.2 0.1 0.1 0.0 0.0 0.0 0.0 0.0 0.0 0.0 0.0 0.1
7.4 7.0 5.7 4.8 4.4 5.1 4.6 7.4 3.8 1.6 2.3 3.7 3.7 3.1 2.1 1.8 1.4 1.4 1.1 0.5 0.7 0.6 0.7 2.7 2.5 1.8 1.3 1.1 0.9 0.6 0.6 0.3 0.2 0.1 0.0 0.0 0.0 0.0 0.1 0.0 0.1 0.1 0.0
8.6 11.0 14.4 14.3 12.2 8.0 8.9 7.4 7.0 7.4 4.0 6.2 7.5 3.2 3.1 4.1 3.5 2.3 3.3 2.6 2.3 1.6 1.8 2.2 2.3 2.6 3.9 2.1 1.5 1.7 2.6 0.9 0.8 0.3 0.4 0.2 0.1 0.1 0.0 0.1 0.1 0.1 0.2
3.7 9.3 10.3 10.6 9.1 7.6 7.1 4.5 2.9 7.2 6.3 6.0 9.8 7.3 4.7 3.8 3.7 2.5 1.2 3.3 2.8 4.6 6.8 5.9 5.6 7.4 9.8 7.2 7.0 6.3 8.2 7.8 6.8 5.3 3.6 3.4 0.6 0.2 0.2 0.2 0.1 0.1 0.1
0.0 0.6 1.1 0.6 4.0 3.2 2.1 0.8 0.5 1.8 3.5 2.7 2.9 2.9 2.2 1.4 1.7 2.4 2.3 1.5 2.1 4.1 6.0 7.6 9.0 8.6 10.5 11.1 9.5 9.3 12.0 11.5 12.8 9.0 10.6 10.9 7.0 6.1 8.4 6.8 2.2 3.4 1.3
0.8 0.3 0.2 0.1 0.0 0.2 0.3 0.2 0.0 0.2 0.4 1.1 1.1 0.8 0.9 0.5 0.5 0.9 1.5 1.4 1.3 1.3 3.0 3.5 6.7 6.2 5.2 5.0 4.5 5.4 5.8 6.9 9.7 7.8 8.2 9.9 7.9 9.0 7.9 7.0 6.0 6.1 5.2
1.4 1.4 3.3 1.4 1.3 0.1 0.1 0.0 0.1 0.0 0.0 0.0 0.5 0.2 0.3 0.2 0.3 0.4 1.4 1.0 0.3 0.6 0.7 0.7 1.7 1.6 0.7 0.8 1.2 1.4 2.8 3.1 2.4 1.5 1.2 8.8 3.7 5.0 4.0 2.0 0.3 1.6 1.5
2.9 2.4 2.3 0.8 1.3 0.4 0.2 0.3 0.1 0.0 0.7 0.6 0.2 0.0 0.1 0.1 0.0 0.8 2.4 2.7 0.8 0.5 0.1 0.1 0.3 0.4 0.2 0.4 0.4 2.6 7.0 13.0 14.5 9.7 3.1 7.4 6.6 5.9 4.6 2.5 1.8 1.5 1.5
3.0 2.8 2.2 1.4 0.8 0.8 0.3 0.5 0.4 0.4 0.5 0.2 0.2 0.1 0.1 0.2 1.2 1.5 4.8 6.1 6.2 4.1 3.3 2.5 1.9 1.5 1.1 0.8 2.6 1.8 5.2 10.7 8.9 13.6 5.7 7.6 9.7 11.0 21.0 11.3 6.9 5.6 5.1

GFSMA_prec_kuchsnow_273.txt.gz
Snowfall_Accumulation
0.0 0.0 0.0 0.0 0.0 0.0 0.0 0.0 0.0 0.0 0.0 0.0 0.0 0.0 0.0 0.0 0.0 0.0 0.0 0.0 0.0 0.0 0.0 0.0 0.0 0.0 0.0 0.0 0.0 0.0 0.0 0.0 0.0 0.0 0.0 0.0 0.0 0.0 0.0 0.0 0.0 0.0 0.0
0.0 0.0 0.0 0.0 0.0 0.0 0.0 0.0 0.0 0.0 0.0 0.0 0.0 0.0 0.0 0.0 0.0 0.0 0.0 0.0 0.0 0.0 0.0 0.0 0.0 0.0 0.0 0.0 0.0 0.0 0.0 0.0 0.0 0.0 0.0 0.0 0.0 0.0 0.0 0.0 0.0 0.0 0.0
0.0 0.0 0.0 0.0 0.0 0.0 0.0 0.0 0.0 0.0 0.0 0.0 0.0 0.0 0.0 0.0 0.0 0.0 0.0 0.0 0.0 0.0 0.0 0.0 0.0 0.0 0.0 0.0 0.0 0.0 0.0 0.0 0.0 0.0 0.0 0.0 0.0 0.0 0.0 0.0 0.0 0.0 0.0
0.0 0.0 0.0 0.0 0.0 0.0 0.0 0.0 0.0 0.0 0.0 0.0 0.0 0.0 0.0 0.0 0.0 0.0 0.0 0.0 0.0 0.0 0.0 0.0 0.0 0.0 0.0 0.0 0.0 0.0 0.0 0.0 0.0 0.0 0.0 0.0 0.0 0.0 0.0 0.0 0.0 0.0 0.0
0.0 0.0 0.0 0.0 0.0 0.0 0.0 0.0 0.0 0.0 0.0 0.0 0.0 0.0 0.0 0.0 0.0 0.0 0.0 0.0 0.0 0.0 0.0 0.0 0.0 0.0 0.0 0.0 0.0 0.0 0.0 0.0 0.0 0.0 0.0 0.0 0.0 0.0 0.0 0.0 0.0 0.0 0.0
0.0 0.0 0.0 0.0 0.0 0.0 0.0 0.0 0.0 0.0 0.0 0.0 0.0 0.0 0.0 0.0 0.0 0.0 0.0 0.0 0.0 0.0 0.0 0.0 0.0 0.0 0.0 0.0 0.0 0.0 0.0 0.0 0.0 0.0 0.0 0.0 0.0 0.0 0.0 0.0 0.0 0.0 0.0
0.0 0.0 0.0 0.0 0.0 0.0 0.0 0.0 0.0 0.0 0.0 0.0 0.0 0.0 0.0 0.0 0.0 0.0 0.0 0.0 0.0 0.0 0.0 0.0 0.0 0.0 0.0 0.0 0.0 0.0 0.0 0.0 0.0 0.0 0.0 0.0 0.0 0.0 0.0 0.0 0.0 0.0 0.0
0.0 0.0 0.0 0.0 0.0 0.0 0.0 0.0 0.0 0.0 0.0 0.0 0.0 0.0 0.0 0.0 0.0 0.0 0.0 0.0 0.0 0.0 0.0 0.0 0.0 0.0 0.0 0.0 0.0 0.0 0.0 0.0 0.0 0.0 0.0 0.0 0.0 0.0 0.0 0.0 0.0 0.0 0.0
0.0 0.0 0.0 0.0 0.0 0.0 0.0 0.0 0.0 0.0 0.0 0.0 0.0 0.0 0.0 0.0 0.0 0.0 0.0 0.0 0.0 0.0 0.0 0.0 0.0 0.0 0.0 0.0 0.0 0.0 0.0 0.0 0.0 0.0 0.0 0.0 0.0 0.0 0.0 0.0 0.0 0.0 0.0
0.0 0.0 0.0 0.0 0.0 0.0 0.0 0.0 0.0 0.0 0.0 0.0 0.0 0.0 0.0 0.0 0.1 0.0 0.0 0.0 0.0 0.0 0.0 0.0 0.0 0.0 0.0 0.0 0.0 0.0 0.0 0.0 0.0 0.0 0.0 0.0 0.0 0.0 0.0 0.0 0.0 0.0 0.0
0.0 0.0 0.0 0.0 0.0 0.0 0.0 0.0 0.0 0.0 0.0 0.0 0.0 0.0 0.0 0.0 0.0 0.2 0.0 0.0 0.0 0.0 0.0 0.0 0.0 0.0 0.0 0.0 0.0 0.0 0.0 0.0 0.0 0.0 0.0 0.0 0.0 0.0 0.0 0.0 0.0 0.0 0.0
0.0 0.0 0.0 0.0 0.0 0.0 0.0 0.0 0.0 0.0 0.0 0.0 0.0 0.0 0.1 0.2 0.0 0.2 0.2 0.0 0.0 0.0 0.0 0.0 0.0 0.0 0.0 0.0 0.0 0.0 0.0 0.0 0.0 0.0 0.0 0.0 0.0 0.0 0.0 0.0 0.0 0.0 0.0
0.0 0.0 0.0 0.0 0.0 0.0 0.0 0.0 0.0 0.1 0.1 0.1 0.1 0.2 0.1 0.1 0.2 0.2 0.3 0.1 0.2 0.0 0.0 0.0 0.0 0.0 0.0 0.0 0.0 0.0 0.0 0.0 0.0 0.0 0.0 0.0 0.0 0.0 0.0 0.0 0.0 0.0 0.0
0.1 0.0 0.0 0.0 0.0 0.0 0.0 0.0 0.1 0.1 0.1 0.1 0.1 0.2 0.2 0.2 0.2 0.4 0.6 1.9 1.4 0.0 0.1 0.3 0.0 0.1 0.0 0.0 0.0 0.0 0.0 0.0 0.0 0.0 0.0 0.0 0.0 0.0 0.0 0.0 0.0 0.0 0.0
0.0 0.1 0.0 0.0 0.0 0.0 0.0 0.0 0.1 0.0 0.0 0.1 0.2 0.1 0.3 0.2 0.3 0.3 0.5 0.7 2.8 4.1 0.7 0.1 0.4 0.1 0.0 0.0 0.0 0.0 0.0 0.0 0.0 0.0 0.0 0.0 0.0 0.0 0.0 0.0 0.0 0.0 0.0
0.0 0.0 0.1 0.1 0.1 0.0 0.0 0.0 0.0 0.0 0.0 0.1 0.2 0.2 0.3 0.3 0.3 0.3 0.5 0.4 0.7 1.5 2.1 0.4 0.5 0.4 0.2 0.0 0.1 0.0 0.1 0.0 0.0 0.0 0.0 0.0 0.0 0.0 0.0 0.0 0.0 0.0 0.0
0.2 0.1 0.1 0.2 0.3 0.2 0.1 0.1 0.1 0.1 0.0 0.1 0.1 0.2 0.2 0.2 0.1 0.3 0.3 0.5 0.6 0.9 1.4 1.0 0.6 0.6 0.5 0.4 0.2 0.1 0.0 0.0 0.0 0.0 0.0 0.0 0.0 0.0 0.0 0.0 0.0 0.0 0.0
2.3 2.0 1.6 1.1 1.1 0.6 1.2 0.3 0.4 1.6 1.7 0.5 0.7 0.6 0.8 0.2 0.4 0.2 0.1 0.4 0.7 1.0 1.2 1.7 1.5 1.4 1.3 0.9 0.6 0.4 0.3 0.2 0.1 0.1 0.0 0.0 0.0 0.0 0.0 0.0 0.0 0.0 0.1
7.4 7.0 5.7 4.8 4.4 5.1 4.6 7.4 3.8 1.6 2.3 3.7 3.7 3.1 2.1 1.8 1.4 1.4 1.1 0.5 0.7 0.6 0.7 2.7 2.5 1.8 1.3 1.1 0.9 0.6 0.6 0.3 0.2 0.1 0.0 0.0 0.0 0.0 0.1 0.0 0.1 0.1 0.0
8.6 11.0 14.4 14.3 12.2 8.0 8.9 7.4 7.0 7.4 4.0 6.2 7.5 3.2 3.1 4.1 3.5 2.3 3.3 2.6 2.3 1.6 1.8 2.2 2.3 2.6 3.9 2.1 1.5 1.7 2.6 0.9 0.8 0.3 0.4 0.2 0.1 0.1 0.0 0.1 0.1 0.1 0.2
3.7 9.3 10.3 10.6 9.1 7.6 7.1 4.5 2.9 7.2 6.3 6.0 9.8 7.3 4.7 3.8 3.7 2.5 1.2 3.3 2.8 4.6 6.8 6.0 5.7 7.5 9.8 7.2 7.0 6.3 8.3 7.8 6.8 5.3 3.6 3.4 0.6 0.2 0.2 0.2 0.1 0.1 0.1
0.0 0.6 1.1 0.6 4.0 3.2 2.1 0.8 0.5 1.8 3.5 2.7 2.9 2.9 2.2 1.4 1.7 2.4 2.3 1.5 2.1 4.1 6.1 7.8 9.2 8.7 10.6 11.1 9.5 9.4 12.2 11.8 13.1 9.0 10.6 10.9 7.0 6.1 8.4 6.8 2.2 3.4 1.3
0.8 0.3 0.2 0.1 0.0 0.2 0.3 0.2 0.0 0.2 0.4 1.1 1.1 0.8 0.9 0.5 0.5 0.9 1.5 1.4 1.3 1.3 3.0 3.5 7.4 6.4 5.4 5.0 4.7 6.0 6.0 7.2 10.0 7.8 8.2 10.0 7.9 9.0 7.9 7.0 6.0 6.1 5.2
1.4 1.4 3.3 1.4 1.3 0.1 0.1 0.0 0.1 0.0 0.0 0.0 0.5 0.2 0.3 0.2 0.3 0.4 1.4 1.0 0.3 0.6 0.7 0.7 1.8 1.8 0.8 0.8 1.3 1.5 3.0 3.3 2.4 1.5 1.2 9.1 3.7 5.0 4.0 2.0 0.3 1.6 1.5
2.9 2.4 2.3 0.8 1.3 0.4 0.2 0.3 0.1 0.0 0.7 0.6 0.2 0.0 0.1 0.1 0.0 0.8 2.4 2.7 0.8 0.5 0.1 0.1 0.3 0.4 0.2 0.4 0.4 2.7 7.4 13.5 14.9 9.9 3.2 7.7 6.7 6.1 4.6 2.5 1.8 1.5 1.5
3.0 2.8 2.2 1.4 0.8 0.8 0.3 0.5 0.4 0.4 0.5 0.2 0.2 0.1 0.1 0.2 1.2 1.5 4.8 6.2 6.4 4.1 3.3 2.5 1.9 1.5 1.1 0.8 2.6 1.9 5.4 11.5 9.4 14.0 5.7 8.0 10.0 11.4 22.0 11.3 6.9 5.6 5.1

GFSMA_prec_kuchsnow_276.txt.gz
Snowfall_Accumulation
0.0 0.0 0.0 0.0 0.0 0.0 0.0 0.0 0.0 0.0 0.0 0.0 0.0 0.0 0.0 0.0 0.0 0.0 0.0 0.0 0.0 0.0 0.0 0.0 0.0 0.0 0.0 0.0 0.0 0.0 0.0 0.0 0.0 0.0 0.0 0.0 0.0 0.0 0.0 0.0 0.0 0.0 0.0
0.0 0.0 0.0 0.0 0.0 0.0 0.0 0.0 0.0 0.0 0.0 0.0 0.0 0.0 0.0 0.0 0.0 0.0 0.0 0.0 0.0 0.0 0.0 0.0 0.0 0.0 0.0 0.0 0.0 0.0 0.0 0.0 0.0 0.0 0.0 0.0 0.0 0.0 0.0 0.0 0.0 0.0 0.0
0.0 0.0 0.0 0.0 0.0 0.0 0.0 0.0 0.0 0.0 0.0 0.0 0.0 0.0 0.0 0.0 0.0 0.0 0.0 0.0 0.0 0.0 0.0 0.0 0.0 0.0 0.0 0.0 0.0 0.0 0.0 0.0 0.0 0.0 0.0 0.0 0.0 0.0 0.0 0.0 0.0 0.0 0.0
0.0 0.0 0.0 0.0 0.0 0.0 0.0 0.0 0.0 0.0 0.0 0.0 0.0 0.0 0.0 0.0 0.0 0.0 0.0 0.0 0.0 0.0 0.0 0.0 0.0 0.0 0.0 0.0 0.0 0.0 0.0 0.0 0.0 0.0 0.0 0.0 0.0 0.0 0.0 0.0 0.0 0.0 0.0
0.0 0.0 0.0 0.0 0.0 0.0 0.0 0.0 0.0 0.0 0.0 0.0 0.0 0.0 0.0 0.0 0.0 0.0 0.0 0.0 0.0 0.0 0.0 0.0 0.0 0.0 0.0 0.0 0.0 0.0 0.0 0.0 0.0 0.0 0.0 0.0 0.0 0.0 0.0 0.0 0.0 0.0 0.0
0.0 0.0 0.0 0.0 0.0 0.0 0.0 0.0 0.0 0.0 0.0 0.0 0.0 0.0 0.0 0.0 0.0 0.0 0.0 0.0 0.0 0.0 0.0 0.0 0.0 0.0 0.0 0.0 0.0 0.0 0.0 0.0 0.0 0.0 0.0 0.0 0.0 0.0 0.0 0.0 0.0 0.0 0.0
0.0 0.0 0.0 0.0 0.0 0.0 0.0 0.0 0.0 0.0 0.0 0.0 0.0 0.0 0.0 0.0 0.0 0.0 0.0 0.0 0.0 0.0 0.0 0.0 0.0 0.0 0.0 0.0 0.0 0.0 0.0 0.0 0.0 0.0 0.0 0.0 0.0 0.0 0.0 0.0 0.0 0.0 0.0
0.0 0.0 0.0 0.0 0.0 0.0 0.0 0.0 0.0 0.0 0.0 0.0 0.0 0.0 0.0 0.0 0.0 0.0 0.0 0.0 0.0 0.0 0.0 0.0 0.0 0.0 0.0 0.0 0.0 0.0 0.0 0.0 0.0 0.0 0.0 0.0 0.0 0.0 0.0 0.0 0.0 0.0 0.0
0.0 0.0 0.0 0.0 0.0 0.0 0.0 0.0 0.0 0.0 0.0 0.0 0.0 0.0 0.0 0.0 0.0 0.0 0.0 0.0 0.0 0.0 0.0 0.0 0.0 0.0 0.0 0.0 0.0 0.0 0.0 0.0 0.0 0.0 0.0 0.0 0.0 0.0 0.0 0.0 0.0 0.0 0.0
0.0 0.0 0.0 0.0 0.0 0.0 0.0 0.0 0.0 0.0 0.0 0.0 0.0 0.0 0.0 0.0 0.1 0.0 0.0 0.0 0.0 0.0 0.0 0.0 0.0 0.0 0.0 0.0 0.0 0.0 0.0 0.0 0.0 0.0 0.0 0.0 0.0 0.0 0.0 0.0 0.0 0.0 0.0
0.0 0.0 0.0 0.0 0.0 0.0 0.0 0.0 0.0 0.0 0.0 0.0 0.0 0.0 0.0 0.0 0.0 0.2 0.0 0.0 0.0 0.0 0.0 0.0 0.0 0.0 0.0 0.0 0.0 0.0 0.0 0.0 0.0 0.0 0.0 0.0 0.0 0.0 0.0 0.0 0.0 0.0 0.0
0.0 0.0 0.0 0.0 0.0 0.0 0.0 0.0 0.0 0.0 0.0 0.0 0.0 0.0 0.1 0.2 0.0 0.2 0.2 0.0 0.0 0.0 0.0 0.0 0.0 0.0 0.0 0.0 0.0 0.0 0.0 0.0 0.0 0.0 0.0 0.0 0.0 0.0 0.0 0.0 0.0 0.0 0.0
0.0 0.0 0.0 0.0 0.0 0.0 0.0 0.0 0.0 0.1 0.1 0.1 0.1 0.2 0.1 0.1 0.2 0.2 0.3 0.1 0.2 0.0 0.0 0.0 0.0 0.0 0.0 0.0 0.0 0.0 0.0 0.0 0.0 0.0 0.0 0.0 0.0 0.0 0.0 0.0 0.0 0.0 0.0
0.1 0.0 0.0 0.0 0.0 0.0 0.0 0.0 0.1 0.1 0.1 0.1 0.1 0.2 0.2 0.2 0.2 0.4 0.6 1.9 1.4 0.0 0.1 0.3 0.0 0.1 0.0 0.0 0.0 0.0 0.0 0.0 0.0 0.0 0.0 0.0 0.0 0.0 0.0 0.0 0.0 0.0 0.0
0.0 0.1 0.0 0.0 0.0 0.0 0.0 0.0 0.1 0.0 0.0 0.1 0.2 0.1 0.3 0.2 0.3 0.3 0.5 0.7 2.8 4.1 0.7 0.1 0.4 0.1 0.0 0.0 0.0 0.0 0.0 0.0 0.0 0.0 0.0 0.0 0.0 0.0 0.0 0.0 0.0 0.0 0.0
0.0 0.0 0.1 0.1 0.1 0.0 0.0 0.0 0.0 0.0 0.0 0.1 0.2 0.2 0.3 0.3 0.3 0.3 0.5 0.4 0.7 1.5 2.1 0.4 0.5 0.4 0.2 0.0 0.1 0.0 0.1 0.0 0.0 0.0 0.0 0.0 0.0 0.0 0.0 0.0 0.0 0.0 0.0
0.2 0.1 0.1 0.2 0.3 0.2 0.1 0.1 0.1 0.1 0.0 0.1 0.1 0.2 0.2 0.2 0.1 0.3 0.3 0.5 0.6 0.9 1.4 1.0 0.6 0.6 0.5 0.4 0.2 0.1 0.0 0.0 0.0 0.0 0.0 0.0 0.0 0.0 0.0 0.0 0.0 0.0 0.0
2.3 2.0 1.6 1.1 1.1 0.6 1.2 0.3 0.4 1.6 1.7 0.5 0.7 0.6 0.8 0.2 0.4 0.2 0.1 0.4 0.7 1.0 1.2 1.7 1.5 1.4 1.3 0.9 0.6 0.4 0.3 0.2 0.1 0.1 0.0 0.0 0.0 0.0 0.0 0.0 0.0 0.0 0.1
7.4 7.0 5.7 4.8 4.4 5.1 4.6 7.4 3.8 1.6 2.3 3.7 3.7 3.1 2.1 1.8 1.4 1.4 1.1 0.5 0.7 0.6 0.7 2.7 2.5 1.8 1.3 1.1 0.9 0.6 0.6 0.3 0.2 0.1 0.0 0.0 0.0 0.0 0.1 0.0 0.1 0.1 0.0
8.6 11.0 14.4 14.3 12.2 8.0 8.9 7.4 7.0 7.4 4.0 6.2 7.5 3.2 3.1 4.1 3.5 2.3 3.3 2.6 2.3 1.6 1.8 2.2 2.3 2.6 3.9 2.1 1.5 1.7 2.6 0.9 0.8 0.3 0.4 0.2 0.1 0.1 0.0 0.1 0.1 0.1 0.2
3.7 9.3 10.3 10.6 9.1 7.6 7.1 4.5 2.9 7.2 6.3 6.0 9.8 7.3 4.7 3.8 3.7 2.5 1.2 3.3 2.8 4.6 6.8 6.0 5.7 7.5 9.8 7.2 7.0 6.3 8.3 7.8 6.8 5.3 3.6 3.4 0.6 0.2 0.2 0.2 0.1 0.1 0.1
0.0 0.6 1.1 0.6 4.0 3.2 2.1 0.8 0.5 1.8 3.5 2.7 2.9 2.9 2.2 1.4 1.7 2.4 2.3 1.5 2.1 4.1 6.1 7.8 9.2 8.7 10.6 11.2 9.5 9.4 12.2 11.8 13.2 9.0 10.6 10.9 7.0 6.1 8.4 6.8 2.2 3.4 1.3
0.8 0.3 0.2 0.1 0.0 0.2 0.3 0.2 0.0 0.2 0.4 1.1 1.1 0.8 0.9 0.5 0.5 0.9 1.5 1.4 1.3 1.3 3.0 3.5 7.4 6.4 5.4 5.0 4.7 6.0 6.0 7.3 10.0 7.8 8.2 10.1 7.9 9.0 7.9 7.0 6.0 6.1 5.2
1.4 1.4 3.3 1.4 1.3 0.1 0.1 0.0 0.1 0.0 0.0 0.0 0.5 0.2 0.3 0.2 0.3 0.4 1.4 1.0 0.3 0.6 0.7 0.7 1.8 1.8 0.8 0.8 1.3 1.5 3.2 3.4 2.4 1.5 1.2 9.2 3.7 5.0 4.0 2.0 0.3 1.6 1.5
2.9 2.4 2.3 0.8 1.3 0.4 0.2 0.3 0.1 0.0 0.7 0.6 0.2 0.0 0.1 0.1 0.0 0.8 2.4 2.7 0.8 0.5 0.1 0.1 0.3 0.4 0.2 0.4 0.4 2.8 7.6 13.8 14.9 9.9 3.2 7.8 6.7 6.1 4.6 2.5 1.8 1.5 1.5
3.0 2.8 2.2 1.4 0.8 0.8 0.3 0.5 0.4 0.4 0.5 0.2 0.2 0.1 0.1 0.2 1.2 1.5 4.8 6.2 6.4 4.1 3.3 2.5 1.9 1.5 1.1 0.8 2.6 1.9 5.6 11.8 9.6 14.0 5.7 8.4 10.0 11.6 22.1 11.3 6.9 5.6 5.1

GFSMA_prec_kuchsnow_279.txt.gz
Snowfall_Accumulation
0.0 0.0 0.0 0.0 0.0 0.0 0.0 0.0 0.0 0.0 0.0 0.0 0.0 0.0 0.0 0.0 0.0 0.0 0.0 0.0 0.0 0.0 0.0 0.0 0.0 0.0 0.0 0.0 0.0 0.0 0.0 0.0 0.0 0.0 0.0 0.0 0.0 0.0 0.0 0.0 0.0 0.0 0.0
0.0 0.0 0.0 0.0 0.0 0.0 0.0 0.0 0.0 0.0 0.0 0.0 0.0 0.0 0.0 0.0 0.0 0.0 0.0 0.0 0.0 0.0 0.0 0.0 0.0 0.0 0.0 0.0 0.0 0.0 0.0 0.0 0.0 0.0 0.0 0.0 0.0 0.0 0.0 0.0 0.0 0.0 0.0
0.0 0.0 0.0 0.0 0.0 0.0 0.0 0.0 0.0 0.0 0.0 0.0 0.0 0.0 0.0 0.0 0.0 0.0 0.0 0.0 0.0 0.0 0.0 0.0 0.0 0.0 0.0 0.0 0.0 0.0 0.0 0.0 0.0 0.0 0.0 0.0 0.0 0.0 0.0 0.0 0.0 0.0 0.0
0.0 0.0 0.0 0.0 0.0 0.0 0.0 0.0 0.0 0.0 0.0 0.0 0.0 0.0 0.0 0.0 0.0 0.0 0.0 0.0 0.0 0.0 0.0 0.0 0.0 0.0 0.0 0.0 0.0 0.0 0.0 0.0 0.0 0.0 0.0 0.0 0.0 0.0 0.0 0.0 0.0 0.0 0.0
0.0 0.0 0.0 0.0 0.0 0.0 0.0 0.0 0.0 0.0 0.0 0.0 0.0 0.0 0.0 0.0 0.0 0.0 0.0 0.0 0.0 0.0 0.0 0.0 0.0 0.0 0.0 0.0 0.0 0.0 0.0 0.0 0.0 0.0 0.0 0.0 0.0 0.0 0.0 0.0 0.0 0.0 0.0
0.0 0.0 0.0 0.0 0.0 0.0 0.0 0.0 0.0 0.0 0.0 0.0 0.0 0.0 0.0 0.0 0.0 0.0 0.0 0.0 0.0 0.0 0.0 0.0 0.0 0.0 0.0 0.0 0.0 0.0 0.0 0.0 0.0 0.0 0.0 0.0 0.0 0.0 0.0 0.0 0.0 0.0 0.0
0.0 0.0 0.0 0.0 0.0 0.0 0.0 0.0 0.0 0.0 0.0 0.0 0.0 0.0 0.0 0.0 0.0 0.0 0.0 0.0 0.0 0.0 0.0 0.0 0.0 0.0 0.0 0.0 0.0 0.0 0.0 0.0 0.0 0.0 0.0 0.0 0.0 0.0 0.0 0.0 0.0 0.0 0.0
0.0 0.0 0.0 0.0 0.0 0.0 0.0 0.0 0.0 0.0 0.0 0.0 0.0 0.0 0.0 0.0 0.0 0.0 0.0 0.0 0.0 0.0 0.0 0.0 0.0 0.0 0.0 0.0 0.0 0.0 0.0 0.0 0.0 0.0 0.0 0.0 0.0 0.0 0.0 0.0 0.0 0.0 0.0
0.0 0.0 0.0 0.0 0.0 0.0 0.0 0.0 0.0 0.0 0.0 0.0 0.0 0.0 0.0 0.0 0.0 0.0 0.0 0.0 0.0 0.0 0.0 0.0 0.0 0.0 0.0 0.0 0.0 0.0 0.0 0.0 0.0 0.0 0.0 0.0 0.0 0.0 0.0 0.0 0.0 0.0 0.0
0.0 0.0 0.0 0.0 0.0 0.0 0.0 0.0 0.0 0.0 0.0 0.0 0.0 0.0 0.0 0.0 0.1 0.0 0.0 0.0 0.0 0.0 0.0 0.0 0.0 0.0 0.0 0.0 0.0 0.0 0.0 0.0 0.0 0.0 0.0 0.0 0.0 0.0 0.0 0.0 0.0 0.0 0.0
0.0 0.0 0.0 0.0 0.0 0.0 0.0 0.0 0.0 0.0 0.0 0.0 0.0 0.0 0.0 0.0 0.0 0.2 0.0 0.0 0.0 0.0 0.0 0.0 0.0 0.0 0.0 0.0 0.0 0.0 0.0 0.0 0.0 0.0 0.0 0.0 0.0 0.0 0.0 0.0 0.0 0.0 0.0
0.0 0.0 0.0 0.0 0.0 0.0 0.0 0.0 0.0 0.0 0.0 0.0 0.0 0.0 0.1 0.2 0.0 0.2 0.2 0.0 0.0 0.0 0.0 0.0 0.0 0.0 0.0 0.0 0.0 0.0 0.0 0.0 0.0 0.0 0.0 0.0 0.0 0.0 0.0 0.0 0.0 0.0 0.0
0.0 0.0 0.0 0.0 0.0 0.0 0.0 0.0 0.0 0.1 0.1 0.1 0.1 0.2 0.1 0.1 0.2 0.2 0.3 0.1 0.2 0.0 0.0 0.0 0.0 0.0 0.0 0.0 0.0 0.0 0.0 0.0 0.0 0.0 0.0 0.0 0.0 0.0 0.0 0.0 0.0 0.0 0.0
0.1 0.0 0.0 0.0 0.0 0.0 0.0 0.0 0.1 0.1 0.1 0.1 0.1 0.2 0.2 0.2 0.2 0.4 0.6 1.9 1.4 0.0 0.1 0.3 0.0 0.1 0.0 0.0 0.0 0.0 0.0 0.0 0.0 0.0 0.0 0.0 0.0 0.0 0.0 0.0 0.0 0.0 0.0
0.0 0.1 0.0 0.0 0.0 0.0 0.0 0.0 0.1 0.0 0.0 0.1 0.2 0.1 0.3 0.2 0.3 0.3 0.5 0.7 2.8 4.1 0.7 0.1 0.4 0.1 0.0 0.0 0.0 0.0 0.0 0.0 0.0 0.0 0.0 0.0 0.0 0.0 0.0 0.0 0.0 0.0 0.0
0.0 0.0 0.1 0.1 0.1 0.0 0.0 0.0 0.0 0.0 0.0 0.1 0.2 0.2 0.3 0.3 0.3 0.3 0.5 0.4 0.7 1.5 2.1 0.4 0.5 0.4 0.2 0.0 0.1 0.0 0.1 0.0 0.0 0.0 0.0 0.0 0.0 0.0 0.0 0.0 0.0 0.0 0.0
0.2 0.1 0.1 0.2 0.3 0.2 0.1 0.1 0.1 0.1 0.0 0.1 0.1 0.2 0.2 0.2 0.1 0.3 0.3 0.5 0.6 0.9 1.4 1.0 0.6 0.6 0.5 0.4 0.2 0.1 0.0 0.0 0.0 0.0 0.0 0.0 0.0 0.0 0.0 0.0 0.0 0.0 0.0
2.3 2.0 1.6 1.1 1.1 0.6 1.2 0.3 0.4 1.6 1.7 0.5 0.7 0.6 0.8 0.2 0.4 0.2 0.1 0.4 0.7 1.0 1.2 1.7 1.5 1.4 1.3 0.9 0.6 0.4 0.3 0.2 0.1 0.1 0.0 0.0 0.0 0.0 0.0 0.0 0.0 0.0 0.1
7.4 7.0 5.7 4.8 4.4 5.1 4.6 7.4 3.8 1.6 2.3 3.7 3.7 3.1 2.1 1.8 1.4 1.4 1.1 0.5 0.7 0.6 0.7 2.7 2.5 1.8 1.3 1.1 0.9 0.6 0.6 0.3 0.2 0.1 0.0 0.0 0.0 0.0 0.1 0.0 0.1 0.1 0.0
8.6 11.0 14.4 14.3 12.2 8.0 8.9 7.4 7.0 7.4 4.0 6.2 7.5 3.2 3.1 4.1 3.5 2.3 3.3 2.6 2.3 1.6 1.8 2.2 2.3 2.6 3.9 2.1 1.5 1.7 2.6 0.9 0.8 0.3 0.4 0.2 0.1 0.1 0.0 0.1 0.1 0.1 0.2
3.7 9.3 10.3 10.6 9.1 7.6 7.1 4.5 2.9 7.2 6.3 6.0 9.8 7.3 4.7 3.8 3.7 2.5 1.2 3.3 2.8 4.6 6.8 6.0 5.7 7.5 9.8 7.2 7.0 6.4 8.3 7.8 6.8 5.3 3.6 3.4 0.6 0.2 0.2 0.2 0.1 0.1 0.1
0.0 0.6 1.1 0.6 4.0 3.2 2.1 0.8 0.5 1.8 3.5 2.7 2.9 2.9 2.2 1.4 1.7 2.4 2.3 1.5 2.1 4.1 6.1 7.8 9.2 8.7 10.6 11.2 9.5 9.4 12.2 11.8 13.2 9.0 10.6 10.9 7.0 6.1 8.4 6.8 2.2 3.4 1.3
0.8 0.3 0.2 0.1 0.0 0.2 0.3 0.2 0.0 0.2 0.4 1.1 1.1 0.8 0.9 0.5 0.5 0.9 1.5 1.4 1.3 1.3 3.0 3.5 7.4 6.4 5.4 5.0 4.8 6.0 6.0 7.3 10.0 7.8 8.2 10.1 7.9 9.0 7.9 7.0 6.0 6.1 5.2
1.4 1.4 3.3 1.4 1.3 0.1 0.1 0.0 0.1 0.0 0.0 0.0 0.5 0.2 0.3 0.2 0.3 0.4 1.4 1.0 0.3 0.6 0.7 0.7 1.8 1.8 0.8 0.8 1.3 1.5 3.3 3.7 2.6 1.5 1.2 9.2 3.7 5.0 4.0 2.0 0.3 1.6 1.5
2.9 2.4 2.3 0.8 1.3 0.4 0.2 0.3 0.1 0.0 0.7 0.6 0.2 0.0 0.1 0.1 0.0 0.8 2.4 2.7 0.8 0.5 0.1 0.1 0.3 0.4 0.2 0.4 0.4 2.9 8.0 14.3 15.1 9.9 3.2 7.9 6.7 6.1 4.6 2.5 1.8 1.5 1.5
3.0 2.8 2.2 1.4 0.8 0.8 0.3 0.5 0.4 0.4 0.5 0.2 0.2 0.1 0.1 0.2 1.2 1.5 4.8 6.2 6.4 4.1 3.3 2.5 1.9 1.5 1.1 0.8 2.6 1.9 5.9 12.3 9.6 14.0 5.7 8.5 10.0 11.6 22.6 11.3 6.9 5.6 5.1